Lid_Strength_Index
5 5 5 5 5 5 5 5 5 5 5 5 5 5 5 5 5 5 4 4 4 4 4 4 4 4 8 12 11 7 5 6 6 6 8 9 11 12 13 12 11 14 13 11 11 11 12
5 5 5 5 5 5 5 5 5 5 5 5 5 5 5 5 5 5 5 4 4 4 4 4 4 4 11 15 7 9 9 9 9 8 8 9 10 10 12 12 13 11 11 12 12 12 12
5 5 5 5 5 5 5 5 5 4 5 5 5 5 5 5 5 5 5 4 4 5 4 5 4 6 11 13 9 9 9 9 9 10 9 9 9 11 11 13 11 11 14 14 13 12 12
5 5 5 5 5 6 5 5 5 5 5 5 5 5 5 5 5 4 4 4 4 4 5 5 4 8 13 8 9 9 10 10 10 8 9 10 9 10 11 11 11 14 16 20 14 13 12
5 5 6 6 6 6 6 6 6 5 5 5 5 5 5 5 5 4 4 4 4 5 5 5 9 10 14 7 11 9 11 11 11 10 9 8 8 11 11 14 17 16 20 19 17 13 13
5 5 5 6 6 6 6 5 5 5 5 5 5 5 5 5 4 4 5 5 5 7 8 8 9 13 12 13 10 9 10 10 12 11 11 11 12 14 17 19 21 20 20 18 17 14 13
6 5 5 5 5 5 5 5 5 5 5 5 5 4 4 4 4 4 6 10 13 14 12 14 14 14 12 10 7 10 9 11 11 13 17 14 16 20 19 17 18 19 19 20 17 14 15
5 5 5 5 5 6 5 5 5 4 5 5 5 4 4 4 4 5 8 11 11 11 16 12 11 11 10 9 12 11 9 13 14 17 15 17 18 16 15 16 17 19 21 21 17 14 15
5 5 5 5 5 5 5 5 5 5 5 5 5 5 4 4 4 7 9 9 7 9 17 13 11 10 10 9 12 13 11 12 15 16 17 18 17 14 16 17 18 18 19 20 20 17 16
5 5 5 5 5 5 5 5 5 5 5 5 5 5 5 4 8 9 10 7 7 9 23 16 13 11 11 11 14 10 9 12 14 17 17 17 15 16 17 17 17 19 17 17 18 20 23
4 5 5 5 5 5 5 5 5 5 5 5 5 5 4 4 9 10 8 6 7 11 30 16 13 8 11 13 13 12 9 12 16 16 16 18 17 17 17 17 15 17 15 16 17 19 19
5 5 5 5 5 5 5 5 5 5 5 5 4 4 4 7 9 7 6 7 10 23 31 18 13 14 15 14 13 12 12 12 13 15 16 16 14 16 16 15 15 15 17 17 17 18 23
5 5 5 4 4 5 5 4 4 4 4 4 4 4 5 5 9 6 7 12 23 27 17 18 16 14 15 15 15 14 15 17 20 25 21 17 17 15 14 17 15 17 20 28 30 25 25
4 4 4 4 4 4 4 4 4 3 3 3 3 3 5 5 5 6 11 19 27 26 18 14 15 15 17 15 16 16 17 20 17 18 23 23 27 17 14 16 18 17 16 20 26 25 22
4 4 4 4 4 3 3 3 2 2 2 2 3 7 7 5 5 8 16 25 26 18 14 15 16 18 19 16 17 18 19 19 17 16 22 23 21 14 13 12 12 15 16 12 16 17 19
4 4 4 3 3 2 2 2 2 2 2 2 9 9 6 4 5 12 19 21 21 13 13 13 20 19 20 19 20 21 20 17 16 14 15 20 23 15 12 10 9 11 10 16 15 21 22
4 3 3 2 2 2 2 2 2 2 2 2 10 16 6 5 8 15 22 25 15 11 12 17 18 17 20 21 20 20 19 16 16 15 13 16 20 18 12 14 15 14 14 13 14 16 20
2 2 1 2 1 1 2 2 2 2 2 6 15 20 8 6 16 23 21 21 10 12 12 14 16 18 17 18 24 24 19 19 14 14 19 13 20 20 17 12 11 11 14 13 17 18 17
2 2 1 1 1 2 2 2 2 2 2 10 12 15 8 9 19 21 19 18 15 13 13 14 17 15 20 18 20 21 24 17 16 17 20 15 21 23 21 15 12 16 14 13 13 15 18
1 1 2 1 1 2 2 2 2 2 2 9 17 18 16 13 15 18 20 19 19 13 13 12 13 13 19 20 17 19 18 16 12 13 8 12 17 18 20 17 14 17 15 14 15 18 18
1 1 1 1 1 1 1 2 2 2 2 10 18 20 17 21 20 20 17 21 18 19 13 13 15 16 16 19 22 20 17 18 14 10 13 14 20 19 14 13 14 15 15 15 17 15 17
1 1 1 1 1 1 1 1 2 2 3 12 18 18 18 21 15 18 16 20 17 16 17 17 17 15 15 17 19 19 16 15 16 13 15 17 17 19 16 13 15 16 15 14 13 12 14
1 1 1 1 1 1 1 1 1 2 4 14 14 12 13 16 22 22 20 16 15 14 13 12 14 15 15 15 13 13 12 12 13 14 14 15 18 20 20 16 19 22 15 14 13 11 14
1 1 1 1 0 0 1 1 1 2 3 8 12 12 14 19 21 20 15 14 14 13 15 13 13 15 12 10 11 11 12 12 12 12 10 13 16 14 18 22 29 17 10 11 12 11 13
1 1 1 1 0 0 0 0 1 1 1 5 6 8 14 18 14 14 14 14 13 13 14 14 12 11 10 11 15 20 21 23 20 14 12 10 15 20 20 28 17 14 12 12 14 14 12
1 1 1 1 0 0 0 0 0 0 1 4 7 6 9 15 16 12 14 14 17 17 17 14 11 9 11 14 19 22 24 20 24 22 13 10 10 17 29 24 25 15 11 9 10 16 11
1 1 1 1 0 0 0 0 0 0 0 3 5 6 8 13 12 12 17 16 13 15 15 15 14 13 11 24 25 26 23 18 21 21 23 26 26 17 17 18 18 12 10 8 17 17 10
1 1 1 1 1 0 0 1 0 1 1 2 5 5 7 10 10 10 10 13 14 13 15 14 14 18 22 25 26 23 23 21 21 18 21 20 23 25 26 28 22 9 9 13 11 9 9
1 1 1 1 1 1 1 0 1 1 1 1 6 4 5 8 10 9 7 7 8 9 11 11 12 15 14 20 22 22 19 16 16 20 12 16 14 17 14 15 9 8 9 7 8 9 9